Regional Weather Roundup
Issued by NWS

Home | Current Version | Previous Version | Graphics & Text | Print | Product List | Glossary On
Versions: 1 2 3 4 5 6 7 8 9 10 11 12 13 14 15 16 17 18 19 20 21 22 23 24 25 26 27 28 29 30 31 32 33 34 35 36 37 38 39 40 41 42 43 44 45 46 47 48 49 50
000
ASUS45 KBOU 172207
RWRCO

WEATHER ROUNDUP FOR COLORADO
NATIONAL WEATHER SERVICE DENVER/BOULDER CO
400 PM MDT FRI APR 17 2015

NOTE: "FAIR" INDICATES FEW OR NO CLOUDS BELOW 12000 FEET WITH NO
SIGNIFICANT WEATHER AND/OR OBSTRUCTIONS TO VISIBILITY.

COZ001>005-013-030-031-172300-
...NORTHWEST COLORADO...

CITY           SKY/WX    TMP DP  RH WIND       PRES   REMARKS
CRAIG          LGT RAIN  42  35  76 E20G28    29.95R
HAYDEN         CLOUDY    37  30  75 E17G29    29.97R
MEEKER         LGT SNOW  35  32  88 MISG      29.97F VSB 3/4
MOUNT WERNER   NOT AVBL
STEAMBOAT SPGS PTSUNNY   35  33  92 NW5       29.96F WCI  31
WALDEN         CLOUDY    32  30  93 N12       30.00F WCI  23
$$

COZ006>008-011-172300-
...WEST CENTRAL VALLEYS...

CITY           SKY/WX    TMP DP  RH WIND       PRES   REMARKS
GRAND JUNCTION LGT RAIN  36  35  96 NE7       30.00S FOG
MONTROSE       PTSUNNY   43  32  65 NE6       29.99F
EAGLE          FOG       43  34  70 SE20G32   29.95R VSB 1
RIFLE          CLOUDY    41  34  76 W21       29.97F
DELTA          CLOUDY    44  36  73 E3        30.00S
NUCLA          CLOUDY    37  34  87 W5        30.05F
$$

COZ017>023-064>068-172300-
...SOUTHWEST COLORADO...

CITY           SKY/WX    TMP DP  RH WIND       PRES   REMARKS
DURANGO        PTSUNNY   44  14  29 W12G17    30.00F
CORTEZ         CLOUDY    42  29  59 W13       30.03F
PAGOSA SPRINGS PTSUNNY   40   5  23 SW9       30.00F
TELLURIDE      LGT SNOW  29  25  85 W10G18    30.00S WCI  20
WOLF CREEK PAS CLOUDY    19   3  49 SW23G32   30.02S WCI   2
$$

COZ009-010-012-014-032>034-037-058>063-172300-
...CENTRAL COLORADO...

CITY           SKY/WX    TMP DP  RH WIND       PRES   REMARKS
ASPEN          LGT SNOW  31  29  92 N6        29.95R FOG     WCI  25
BUENA VISTA    CLOUDY    32  23  70 NE7       30.02R HAZE    WCI  26
COPPER MTN     PTSUNNY   25   3  39 E26G46    29.96R WCI   9
BERTHOUD PASS  FAIR      16   9  73 MISG      30.01F HAZE
COTTONWOOD PAS CLOUDY    30  27  86 E6        30.01R WCI  24
GUNNISON       PTSUNNY   34  25  69 E16       30.00S WCI  23
KREMMLING      CLOUDY    46  27  46 E12       29.93F
LEADVILLE      MIX PCPN  21  17  84 S13       29.99R WCI   9
MONARCH PASS   CLOUDY    18  14  86 MISG      30.10R
SALIDA         CLOUDY    38  25  61 NW5       30.07S
SUNLIGHT       CLOUDY   N/A N/A N/A CALM      30.00S FOG
WILKERSON PASS MOSUNNY   28  14  54 SW6       30.05R WCI  22
$$

COZ069>075-172300-
...SAN LUIS VALLEY/SANGRE DE CRISTO MOUNTAINS...

CITY           SKY/WX    TMP DP  RH WIND       PRES   REMARKS
ALAMOSA        PTSUNNY   43  13  29 SW10      29.97S
LA VETA PASS   CLOUDY    28  19  69 S7        30.01S WCI  21
SAGUACHE       PTSUNNY   36  23  60 NE6       30.00S
$$

COZ035-036-038>040-172300-
...NORTHERN COLORADO FRONT RANGE...

CITY           SKY/WX    TMP DP  RH WIND       PRES   REMARKS
DENVER INTL AP PTSUNNY   49  36  61 W9        29.96S
DMNS CITY PARK   N/A     49  34  58 W5G10     29.97S
AURORA         NOT AVBL
FRONT RANGE AP PTSUNNY   52  39  62 W7        29.97S
ERIE MUNI ARPT PTSUNNY   47  41  80 N13       29.98S
BOULDER MUN AP MOSUNNY   50  39  66 N7        29.97S
CENTENNIAL     MOSUNNY   46  35  65 CALM      29.96F
BROOMFIELD     NOT AVBL
FORT COLLINS   CLOUDY    43  39  87 N17G24    30.00S
LONGMONT       CLOUDY    53  40  62 N10G18    29.99S
$$

COZ041-046-047-076>085-087-088-172300-
...PIKES PEAK/PALMER DIVIDE AND SOUTHERN FOOTHILLS...

CITY           SKY/WX    TMP DP  RH WIND       PRES   REMARKS
COLO. SPRINGS  MOSUNNY   51  15  23 SW14G24   29.97S
A. F. ACADEMY  NOT AVBL
ELLICOTT       SUNNY    N/A N/A N/A VRB5G17   29.94F
FALCON         SUNNY     50  14  24 S8G14     29.98F
FORT CARSON    NOT AVBL
LIMON          SUNNY     58  31  35 S17G24    29.93F
MONUMENT HILL  SUNNY     43  23  45 S5        29.97S
TRINIDAD       PTSUNNY   51  27  39 W16       29.90S
$$

COZ042>045-048>051-090-091-172300-
...NORTHEAST COLORADO...

CITY           SKY/WX    TMP DP  RH WIND       PRES   REMARKS
GREELEY ARPT   CLOUDY    45  43  93 N13       29.98R
AKRON          PTSUNNY   53  48  83 E17       29.94F
BURLINGTON     SUNNY     62  46  55 SE17      29.92F
WRAY           PTSUNNY   64  48  57 SE14G26   29.94F
STERLING       PTSUNNY   54  50  87 SE13G24   29.93F
HOLYOKE        PTSUNNY   63  50  63 SE16      29.96F THUNDER
FORT MORGAN    PTSUNNY   53  47  81 E14G20    29.95S
$$

COZ086-089-092>099-172300-
...SOUTHEAST COLORADO...

CITY           SKY/WX    TMP DP  RH WIND       PRES   REMARKS
PUEBLO         MOSUNNY   57  25  29 W10G18    29.92F
LA JUNTA       PTSUNNY   62  37  39 NE6       29.86F
LAMAR          SUNNY     69  18  14 S18G26    29.85F
SPRINGFIELD      N/A     65  14  14 S17G24    29.89F
$$


USA.gov is the U.S. government's official web portal to all federal, state and local government web resources and services.